www.pogodaiklimat.ru

Погода и климат >> Архив погоды >> Россия >> Краснодарский край >> Сочи аэропорт (Адлер)


ПОГОДА в Сочи аэропорту (Адлер)

  • Прогноз погоды в Сочи аэропорту (Адлер)
  • Монитор погоды в Сочи аэропорту (Адлер)
  • Климат города

АРХИВ ПОГОДЫ в Сочи аэропорту (Адлер)

Время (UTC), дата Ветер
(напр.,м/с)
 
Видим.   Явления Облачность Т
(С)
Тd
(С)
f
(%)
Тe
(С)
Тes
(С)
Комфортность P
(гПа)
Po
(гПа)
Тmin
(С)
Tmax
(С)
R
(мм)
S
(см)
15 14.02 З 1 10 км 10/10 1200 м
[Cb cap]
+2.9 -2.2 69 +2 +2 1025.1 1023.2 +5.0
18 14.02 В 2 4000 м слабый ливневой снег 10/10 1380 м
[Cb cap]
+1.3 -0.4 88 -2 -2 1024.6 1022.7
21 14.02 ЮВ 3 4000 м {ливн. осадки} 10/10 1500 м
[Cb cap]
+2.5 -2.4 70 -1 -1 1022.7 1020.8
00 15.02 ЮВ 3 200 м ливневой снег 10/10 120 м
[Cb cap]
+0.2 -0.4 96 -5 -5 1020.7 1018.8
03 15.02 Ю 3 4000 м слабый ливневой снег 10/10 180 м
[Cb cap]
+1.7 +1.2 96 -3 -3 1018.0 1016.1 0.0 14 4
06 15.02 Ю 4 10 км слабый ливневой снег 10/10 300 м
[Cb cap]
+2.8 +1.2 89 -2 -2 1016.9 1015.0
09 15.02 З 4 10 км слабый ливневой дождь со снегом 10/10 300 м
[Cb cap]
+3.2 +1.9 91 -2 -2 1016.0 1014.1
12 15.02 СВ 2 4000 м слабый ливневой дождь со снегом 10/10 210 м
[Cb cap]
+0.8 0.0 94 -3 -3 1016.4 1014.5
15 15.02 СВ 1 10 км {ливн. осадки} 10/10 1200 м
[Cb cap]
+2.0 +1.5 96 0 0 1017.5 1015.6 +3.9 8
18 15.02 В 3 4000 м {ливн. осадки} 5/3 1500 м
[Sc Ac trans]
+0.8 +0.3 96 -4 -4 1018.4 1016.5
21 15.02 СВ 2 4000 м 6/4 870 м
[Sc Ac trans]
0.0 -0.6 96 -4 -4 1018.7 1016.8
00 16.02 В 1 4000 м 5/5 900 м
[Sc]
-0.9 -1.8 94 -3 -3 1019.2 1017.3
03 16.02 СВ 2 4000 м ясно -2.1 -3.0 94 -6 -6 1019.2 1017.3 -3.2 1
06 16.02 ЮВ 1 20 км ясно +0.8 -5.3 64 -1 +2 1019.5 1017.6
09 16.02 С 2 20 км 3/3 1500 м
[Sc]
+4.7 -6.1 45 +3 +8 1018.7 1016.8
12 16.02 СЗ 4 20 км 3/3 1500 м
[Cu hum]
+6.1 -11.6 27 +3 +5 1017.8 1015.9
15 16.02 В 4 20 км 3/3 600 м
[Cb cap]
+3.8 -11.1 33 -0 -0 1019.7 1017.8 +7.1
18 16.02 СВ 2 4000 м ясно 0.0 -7.6 57 -3 -3 1022.4 1020.5
21 16.02 СВ 5 4000 м 3/3 600 м
[Sc]
-0.8 -4.0 79 -7 -7 1023.8 1021.9
00 17.02 В 3 4000 м ясно -1.6 -11.3 48 -6 -6 1025.2 1023.3
03 17.02 СВ 6 4000 м 9/9 1050 м
[Sc]
-2.0 -10.0 54 -9 -9 1026.0 1024.1 -2.4
06 17.02 СВ 7 20 км 3/3 1500 м
[Sc]
-0.4 -9.7 49 -7 -6 1027.4 1025.5 -2.3
09 17.02 Ю 4 10 км 9/9 1410 м
[Sc]
+3.5 -1.8 68 -1 -0 1028.8 1026.9
12 17.02 ЮВ 5
{10}
10 км 9/9 750 м
[Cb cap]
+4.8 -0.5 69 0 +1 1029.1 1027.2
15 17.02 ЮВ 4 10 км 8/8 1050 м
[Cb cap]
+3.2 -3.6 61 -1 -1 1030.2 1028.3 +5.9
18 17.02 ЮВ 3 4000 м 9/9 1000 м
[Sc]
+2.9 -4.4 59 -1 -1 1031.7 1029.8
21 17.02 СВ 4 4000 м 9/9 960 м
[Sc]
+1.8 -2.9 71 -3 -3 1031.3 1029.4
00 18.02 В 3 4000 м 6/6 800 м
[Sc]
+0.5 -2.8 79 -4 -4 1030.4 1028.5
03 18.02 В 4 4000 м 1/1 600 м
[Sc]
-1.0 -5.3 73 -6 -6 1029.6 1027.7 -1.2
06 18.02 В 3 20 км 4/1 600 м
[Cu hum Ci fib]
+1.1 -6.1 59 -3 -1 1028.9 1027.0 -1.7
09 18.02 ЮВ 5 20 км 10/0
[Cs]
+5.3 -5.6 45 +1 +5 1027.6 1025.7
12 18.02 ЮВ 3 20 км 10/0
[As trans]
+6.6 -6.0 40 +4 +6 1026.3 1024.4
15 18.02 СВ 2 20 км 9/0
[Ac trans]
+5.6 -5.1 46 +4 +4 1026.1 1024.2 +7.5
18 18.02 В 2 4000 м 4/0
[Ac trans]
+2.0 -3.0 69 -1 -1 1027.2 1025.3
21 18.02 СВ 4 4000 м ясно +0.6 -4.4 69 -4 -4 1028.0 1026.1
00 19.02 В 6 4000 м ясно +0.7 -5.0 66 -5 -5 1028.6 1026.7
03 19.02 СВ 3 4000 м 10/0
[Ac und]
+2.2 -5.3 58 -1 -1 1029.0 1027.1 -0.9
06 19.02 СВ 2 20 км 10/0
[Ci fib]
+2.8 -3.8 62 0 +2 1030.7 1028.8
09 19.02 ЮВ 3 20 км 5/0
[Ci fib]
+9.7 -3.6 39 +8 +14 1030.7 1028.8
12 19.02 ЮВ 3 20 км 9/0
[Ac trans]
+10.1 -1.4 45 +8 +10 1029.7 1027.8
15 19.02 В 1 20 км 10/0
[Ac trans Ci fib]
+7.9 +1.3 63 +7 +7 1029.1 1027.2 +11.0
18 19.02 В 2 4000 м 9/0
[Ac trans]
+4.2 0.0 74 +2 +2 1028.7 1026.8
21 19.02 штиль 0 4000 м 9/0
[Ac trans]
+3.2 -1.6 71 +2 +2 1028.1 1026.2
00 20.02 штиль 0 4000 м ясно +2.2 -2.4 72 +1 +1 1027.1 1025.2
03 20.02 СВ 3 4000 м ясно +1.8 -1.9 76 -2 -2 1026.2 1024.3 +0.6
06 20.02 СВ 5 20 км 10/0
[Ci fib]
+6.7 -1.6 55 +3 +4 1025.6 1023.7
09 20.02 ЮЗ 2 20 км 10/0
[Ci fib]
+12.4 -6.4 26 +12 +18 1024.0 1022.2
12 20.02 Ю 2 20 км 10/0
[Ci fib]
+13.9 -9.8 18 +14 +17 1021.5 1019.7
15 20.02 штиль 0 20 км 10/0
[Ci fib]
+11.7 -2.5 37 +12 +12 1019.4 1017.6 +15.0
18 20.02 СВ 4 4000 м 10/0
[Ci fib]
+5.7 -1.6 59 +2 +2 1019.2 1017.3
21 20.02 СВ 5 4000 м 10/0
[Ci fib]
+3.1 -2.0 69 -2 -2 1018.7 1016.8
00 21.02 В 7 4000 м 5/0
[Ci fib]
+4.8 -2.5 59 -0 -0 1018.0 1016.1
03 21.02 СВ 4 4000 м 8/0
[Ac As]
+4.8 -2.5 59 +1 +1 1017.8 1015.9 +3.1
06 21.02 В 3 20 км 10/3 1500 м
[Cb cap Ac und]
+5.5 -0.6 65 +3 +3 1018.7 1016.8
09 21.02 В 6
{11}
10 км слабый ливневой дождь 10/10 1140 м
[Cb cap]
+7.0 +2.7 74 +3 +3 1018.9 1017.0
12 21.02 СВ 4 10 км слабый ливневой дождь 10/10 1170 м
[Cb cap]
+7.0 +4.6 85 +3 +3 1016.1 1014.2

 

Местоположение метеостанции Сочи аэропорт (Адлер) (Краснодарский край, Россия): широта 43.43 долгота 39.90 высота над уровнем моря 15 м.

В архиве по умолчанию представлена погода в Сочи аэропорту (Адлер) за последнюю неделю. Архивные данные за месяц целиком и за предыдущие месяцы, начиная с января 2011 года, Вы можете получить, выбрав интересующий диапазон дат из раскрывающегося списка и нажав кнопку "Ввод!".

Внимание! Время в таблицах - всемирное. Для получения местного времени необходимо прибавить поправку, которая в Сочи аэропорту (Адлер) равна 3 ч.

Смотрите также архив погоды в соседних городах и на ближайших метеорологических станциях:

Погода в Сочи (Краснодарский край, Россия) (20 км)
Погода в Кепше (Краснодарский край, Россия) (24 км)
Погода в Красной Поляне (Краснодарский край, Россия) (37 км)
Погода в Гузерипле (Адыгея, Россия) (66 км)
Погода в Туапсе (Краснодарский край, Россия) (100 км)
Погода в Псебае (Краснодарский край, Россия) (105 км)
Погода в Горном (Краснодарский край, Россия) (107 км)
Погода в Шунтуке (Адыгея, Россия) (117 км)
Погода в Майкопе (Адыгея, Россия) (133 км)
Погода в Джубге (Краснодарский край, Россия) (138 км)

Пояснения к столбцам:

Ветер - указаны скорость ветра в м/с - средняя за 10 мин, порывы в срок и между сроками (в фигурных скобках) и направление, откуда дует ветер: С - северный, СВ - северо-восточный, В - восточный, ЮВ - юго-восточный, Ю - южный, ЮЗ - юго-западный, З - западный, СЗ - северо-западный.
Видимость - горизонтальная дальность видимости в метрах или километрах. При видимости от 1 до 10 км при отсутствии осадков обычно наблюдается дымка, при ухудшении видимости до 1 км и менее - туман. В сухую погоду видимость может ухудшаться дымом, пылью или мглою.
Явления - указаны атмосферные явления, наблюдавшиеся в срок или в последний час перед сроком; фигурными скобками обозначены явления, наблюдавшиеся между сроками (за 1-3 часа до срока); квадратными скобками обозначены град или гололедные отложения с указанием их диаметра в мм.
Облачность - указаны через наклонную черту общая и нижняя облачность в баллах и высота нижней границы облаков в метрах; квадратными скобками обозначены формы облаков: Ci - перистые, Cs - перисто-слоистые, Cc - перисто-кучевые, Ac - высококучевые, As - высокослоистые, Sc - слоисто-кучевые, Ns - слоисто-дождевые, Cu - кучевые, Cb - кучево-дождевые. Подробнее классификацию облаков см. в Атласе облаков (PDF).
T - Температура воздуха - температура, измеренная на высоте 2 м над землей.
Td - Температура точки росы - температура, при понижении до которой содержащийся в воздухе водяной пар достигнет насыщения.
f - Относительная влажность воздуха - влажноcть воздуха, измеренная на высоте 2 м над землей.
Te - Эффективная температура - температура, которую ощущает одетый по сезону человек в тени. Характеристика душности погоды. При расчете учитывается влияние влажности воздуха и скорости ветра на теплоощущения человека.
Tes - Эффективная температура на солнце - температура, которую ощущает человек, с поправкой на солнечный нагрев. Характеристика знойности погоды. Зависит от высоты солнца над горизонтом, облачности и скорости ветра. Ночью, в пасмурную погоду, а также при ветре 12 м/с и более поправка равна нулю.
P - Атмосферное давление - приведенное к уровню моря атмосферное давление.
Po - Атмосферное давление - измеренное на уровне метеостанции атмосферное давление.
Tmin - Минимальная температура - минимум температуры воздуха на высоте 2 м над землей.
Tmax - Максимальная температура - максимум температуры воздуха на высоте 2 м над землей.
R - Количество осадков - Количество выпавших осадков, мм. При наведении курсора мыши на число - период времени, за который выпало указанное количество осадков.
S - Снежный покров - Высота снежного покрова, см. При наведении курсора мыши на число - состояние снежного покрова и степень покрытия местности в баллах.